This demonstration page uses our WeatherBlox Daily Observations layout. Learn more.

Left ArrowRight Arrow

Hourly Observations for August 13, 2021

Temp ( °F °C ) Dew Point ( °F °C ) Humidity (%) Winds ( mph kmh ) Pressure ( in mb ) Visibility ( mi km ) Precip ( " mm )
12:54 am 00:54 Mostly Cloudy 71 21.7 58 14.4 63 63 N 8 13 30.04 1017 10 16 0.00 0.00
1:54 am 01:54 Partly Cloudy 69 20.6 57 13.9 66 66 NNE 12 19 30.06 1018 10 16 0.00 0.00
2:54 am 02:54 Clear 69 20.6 56 13.3 63 63 Calm 30.09 1019 10 16 0.00 0.00
3:54 am 03:54 Mostly Cloudy 70 21.1 57 13.9 64 64 NW 5 7 30.12 1020 10 16 0.00 0.00
4:54 am 04:54 Clear 68 20 57 13.9 68 68 NNW 5 7 30.14 1021 10 16 0.00 0.00
5:54 am 05:54 Mostly Clear 65 18.3 57 13.9 76 76 Calm 30.15 1021 10 16 0.00 0.00
6:54 am 06:54 Mostly Sunny 65 18.3 57 13.9 76 76 N 6 9 30.15 1021 10 16 0.00 0.00
7:54 am 07:54 Sunny 67 19.4 56 13.3 68 68 N 6 9 30.16 1022 10 16 0.00 0.00
8:54 am 08:54 Sunny 69 20.6 56 13.3 63 63 NNW 7 11 30.19 1022 10 16 0.00 0.00
9:54 am 09:54 Sunny 73 22.8 58 14.4 59 59 N 5 7 30.18 1022 10 16 0.00 0.00
10:54 am 10:54 Sunny 76 24.4 58 14.4 54 54 NNW 8 13 30.19 1022 10 16 0.00 0.00
11:54 am 11:54 Sunny 80 26.7 58 14.4 47 47 N 6 9 30.18 1022 10 16 0.00 0.00
12:54 pm 12:54 Sunny 84 28.9 52 11.1 33 33 NE 10 17 30.17 1022 10 16 0.00 0.00
1:54 pm 13:54 Sunny 84 28.9 54 12.2 36 36 NNE 10 17 30.17 1022 10 16 0.00 0.00
2:54 pm 14:54 Sunny 85 29.4 54 12.2 35 35 NE 9 15 30.18 1022 10 16 0.00 0.00
3:54 pm 15:54 Sunny 85 29.4 57 13.9 39 39 NE 12 19 30.18 1022 10 16 0.00 0.00
4:54 pm 16:54 Sunny 85 29.4 55 12.8 36 36 NNE 8 13 30.18 1022 10 16 0.00 0.00
5:54 pm 17:54 Sunny 85 29.4 57 13.9 39 39 NE 6 9 30.18 1022 10 16 0.00 0.00
6:54 pm 18:54 Sunny 83 28.3 58 14.4 43 43 ENE 7 11 30.16 1022 10 16 0.00 0.00
7:54 pm 19:54 Sunny 79 26.1 59 15 50 50 NE 5 7 30.17 1022 10 16 0.00 0.00
8:54 pm 20:54 Clear 76 24.4 58 14.4 54 54 NE 3 6 30.18 1022 10 16 0.00 0.00
9:54 pm 21:54 Clear 76 24.4 61 16.1 60 60 Calm 30.21 1023 10 16 0.00 0.00
10:54 pm 22:54 Clear 73 22.8 59 15 62 62 SSW 3 6 30.22 1023 10 16 0.00 0.00
11:54 pm 23:54 Clear 72 22.2 60 15.6 66 66 S 3 6 30.23 1024 10 16 0.00 0.00

Powered by AerisWeather